User: anonymous   Login
Location: Maiden
(35.5760°N, 81.2120°W)
Time: 10:55:23
(UTC-04:00)
Language:

deb Explorer IX - Orbit

View from above orbital plane
View from above orbital plane
View from above satellite
View from above satellite

Ground track
Ground track

The orbit data is extracted from the following two-line orbital elements,

1    85U 61004C   20216.89323997 +.00005077 +00000-0 +10926-2 0  9994
2    85 038.7694 139.0283 0388328 097.3513 267.1526 14.20929578937845
Epoch (UTC): 03 August 2020 21:26:15
Eccentricity: 0.0388328
inclination: 38.7694°
perigee height: 542 km
apogee height: 1102 km
right ascension of ascending node: 139.0283°
argument of perigee: 97.3513°
revolutions per day: 14.20929578
mean anomaly at epoch: 267.1526°
orbit number at epoch: 93784

The dashed part of the orbit path shows where the satellite is in the earth's shadow,  

DLR